Skip Page Navigation
NASA JPL Caltech
NASA Logo - Jet Propulsion Laboratory + View the NASA Portal
+ Near-Earth Object (NEO) Program
Search JPL
JPL Home Earth Solar System Stars & Galaxies Technology
JPL Solar System Dynamics
BODIES ORBITS EPHEMERIDES TOOLS PHYSICAL DATA DISCOVERY FAQ SITE MAP
JPL Small-Body Database Browser
Search: [ help ]  
(2001 FE90)
Classification: Apollo [NEO, PHA]          SPK-ID: 3071770
Ephemeris | Orbit Diagram | Orbital Elements | Physical Parameters | Close-Approach Data ]

[ hide orbit diagram ]
Orbit Diagram
Note: Make sure you have Java enabled on your browser to see the applet. This applet is provided as a 3D orbit visualization tool. The applet was implemented using 2-body methods, and hence should not be used for determining accurate long-term trajectories (over several years or decades) or planetary encounter circumstances. For accurate long-term ephemerides, please instead use our Horizons system.
Orbit Viewer

Additional Notes: the orbits shown in the applet are color coded. The planets are white lines, and the asteroid/comet is a blue line. The bright white line indicates the portion of the orbit that is above the ecliptic plane, and the darker portion is below the ecliptic plane. Likewise for the asteroid/comet orbit, the light blue indicates the portion above the ecliptic plane, and the dark blue the portion below the ecliptic plane.

Orbit Viewer applet originally written and kindly provided by Osamu Ajiki (AstroArts), and further modified by Ron Baalke (JPL).


Orbital Elements at Epoch 2456400.5 (2013-Apr-18.0) TDB
Reference: JPL 51 (heliocentric ecliptic J2000)
 Element Value Uncertainty (1-sigma)   Units 
e .4952288406204973 2.6493e-08  
a 1.934659308331555 5.1583e-09 AU
q .9765602220708658 4.9853e-08 AU
i 8.79063154145731 5.7909e-06 deg
node 98.56672054707556 2.8084e-06 deg
peri 145.0325169816762 1.385e-05 deg
M 159.1936864739951 3.1055e-06 deg
tp 2455965.861181112694
(2012-Feb-08.36118111)
8.4808e-06 JED
period 982.8905798031774
2.69
3.931e-06
1.076e-08
d
yr
n .3662666093229722 1.4648e-09 deg/d
Q 2.892758394592244 7.7129e-09 AU
  Orbit Determination Parameters
   # obs. used (total)      280  
   # delay obs. used      1  
   # Doppler obs. used      0  
   data-arc span      3043 days (8.33 yr)  
   first obs. used      2001-03-26  
   last obs. used      2009-07-25  
   planetary ephem.      DE405  
   SB-pert. ephem.      SB405-CPV-2  
   condition code      0  
   fit RMS      .67692  
   data source      ORB  
   producer      Otto Matic  
   solution date      2011-Sep-14 19:40:35  

Additional Information
 Earth MOID = .013931 AU 
 T_jup = 3.737 
[ show covariance matrix ]

Ephemeris | Orbit Diagram | Orbital Elements | Physical Parameters | Close-Approach Data ]

Physical Parameter Table
Parameter Symbol Value Units Sigma Reference Notes
absolute magnitude H 20.639 mag .62113 51 autocmod 2.5a
rotation period rot_per 0.4777 h n/a Asteroid Lightcurve DataBase (Rev. 2013-May-01) Published Reference List:
[Hicks, M.; Lawrence, K.; Rhoades, H.; Somers, J; et al. (2009) Astronomer's Telegram 2116. http://www.astronomerstelegram.org]
[Hicks, M.; Lawrence, K.; Rhoades, H.; Somers, J; et al. (2009) Astronomer's Telegram 2116. http://www.astronomerstelegram.org]
[Hicks, M.; Lawrence, K.; Rhoades, H.; Somers, J; et al. (2009) Astronomer's Telegram 2116. http://www.astronomerstelegram.org]
[Hicks, M.; Lawrence, K.; Rhoades, H.; Somers, J; et al. (2009) Astronomer's Telegram 2116. http://www.astronomerstelegram.org]
[Oey, J. (2011) http://minorplanet.haoeydental.com.au]

[ show close-approach data ]
Ephemeris | Orbit Diagram | Orbital Elements | Physical Parameters | Close-Approach Data ]
ABOUT SSD CREDITS/AWARDS PRIVACY/COPYRIGHT GLOSSARY LINKS
FirstGov 2013-May-22 02:27 UT
(server date/time)  
NASA Home Page
Site Manager:   Donald K. Yeomans
Webmaster  Alan B. Chamberlin